Wind_Speed
52 52 52 51 51 50 48 46 44 44 44 44 45 44 43 41 39 36 27 26 31 29 27 27 28 27 26 26 25 25 24 24 22 22 22 21 21 23 26 27 27 27 27 26 25 25 25 25 26 27 27 28 29 28 28 28 28 29 30 30 30 29 28 27 26 25 25 25 24 24 23 22 21 20 18 16 15 15 16 18 20 21 21 21 21
54 54 53 52 51 50 48 46 44 42 42 42 43 43 42 40 38 34 27 29 31 28 27 28 28 27 26 26 24 23 23 23 22 22 22 21 21 24 26 26 26 26 25 25 25 25 25 26 26 27 28 29 29 28 28 28 28 29 29 29 29 29 29 28 27 26 26 25 25 24 24 23 21 20 19 17 15 15 16 18 20 21 22 22 22
55 54 54 53 51 50 49 48 46 45 43 41 41 42 42 40 38 34 28 30 31 28 28 29 29 28 26 25 24 23 23 22 22 22 21 21 23 25 25 25 25 25 25 26 25 25 26 26 27 28 28 29 28 27 27 28 28 28 28 29 29 28 28 28 27 27 26 25 25 25 25 24 23 21 19 18 16 15 15 17 19 21 22 22 22
55 54 54 53 52 51 49 49 49 48 47 45 44 44 43 41 40 36 31 30 31 30 30 31 31 29 26 25 24 22 22 21 21 21 21 22 24 25 25 25 24 25 26 26 25 26 26 27 28 29 29 28 27 26 27 27 27 28 28 28 28 27 28 27 27 27 26 25 25 25 25 24 23 22 20 18 16 15 15 16 18 20 21 22 22
55 54 54 54 53 51 50 49 49 49 49 48 47 46 44 42 40 38 34 32 33 33 31 33 32 29 25 25 23 20 21 21 21 22 23 24 24 25 24 24 24 25 26 25 26 27 27 28 29 29 29 29 27 26 27 27 27 27 27 27 27 27 27 27 27 27 26 25 25 25 25 25 24 22 21 19 17 16 16 16 17 19 21 21 22
55 55 55 54 53 52 51 50 49 49 49 49 47 46 44 43 41 38 35 33 33 33 33 34 32 28 25 24 21 19 22 22 22 23 24 24 24 25 24 24 24 25 25 26 27 27 28 29 30 30 30 29 27 27 27 27 27 27 27 27 26 26 26 27 27 26 26 25 24 24 25 25 24 23 21 20 18 16 16 16 17 18 20 21 21
56 56 55 54 53 52 51 50 50 50 49 49 47 46 44 43 41 38 36 33 33 34 34 34 31 27 25 23 22 23 23 22 23 24 24 25 25 25 24 24 24 25 26 26 28 28 29 30 30 30 30 29 28 28 28 28 27 27 26 26 26 26 26 26 26 26 26 25 24 24 25 25 24 23 21 20 18 17 16 16 16 18 20 21 22
56 55 55 54 53 51 50 49 49 50 50 49 47 46 44 43 41 39 36 33 32 32 32 32 30 27 26 26 26 25 23 22 24 24 25 26 26 25 24 24 24 25 26 27 28 29 30 30 30 30 30 29 29 29 28 28 27 27 27 26 26 25 25 25 26 27 27 26 25 25 25 25 25 24 22 20 19 18 16 15 15 17 19 21 22
55 54 53 52 51 50 49 49 48 49 49 47 46 47 45 43 41 39 35 33 32 31 32 32 30 29 28 28 28 26 24 24 24 25 26 26 26 24 24 24 24 26 27 28 29 30 31 30 31 30 30 29 29 29 28 27 25 27 28 28 26 25 25 25 27 27 26 26 26 25 25 26 26 25 24 22 20 18 17 16 15 16 17 19 21
55 54 52 51 50 49 48 48 48 48 49 47 47 47 45 43 41 39 36 34 33 33 32 30 31 31 30 29 28 27 25 25 25 26 27 27 25 25 25 25 26 27 28 29 30 31 31 31 31 30 30 29 28 28 28 27 26 27 29 28 26 24 24 25 27 26 26 26 26 25 25 26 27 26 25 24 22 20 18 17 16 16 17 18 20
55 54 53 51 50 50 48 48 48 48 48 48 47 47 45 43 41 40 37 35 35 36 32 28 32 32 30 29 29 28 26 25 26 27 28 27 26 26 26 26 27 28 29 30 31 31 31 31 31 30 28 27 28 29 29 29 28 29 29 28 26 24 23 25 25 25 26 25 25 25 25 26 27 26 26 24 23 21 19 18 17 17 18 18 20
55 54 53 52 51 50 49 49 48 48 47 47 46 45 44 43 41 40 38 36 36 38 35 30 33 32 30 30 29 28 28 27 27 28 27 27 27 28 27 27 27 28 30 31 31 31 31 31 30 28 26 26 29 30 30 30 31 31 29 26 25 24 23 24 24 24 25 25 25 25 25 27 26 26 26 25 23 21 19 18 18 18 19 19 20
56 54 52 52 52 51 51 50 49 48 47 46 45 44 43 42 41 40 38 36 34 37 38 35 35 34 32 32 31 30 29 28 28 28 28 29 29 29 28 28 28 29 31 31 30 30 30 30 29 26 25 27 30 30 30 31 32 31 28 25 24 23 23 23 24 23 24 24 25 25 26 26 24 25 27 25 23 20 19 19 18 18 19 20 21
56 54 54 53 52 53 51 50 49 48 47 46 44 42 42 41 41 40 38 35 30 33 38 39 38 36 35 34 33 32 31 29 29 30 30 30 30 30 30 29 30 31 32 30 28 29 30 29 27 25 26 30 32 30 29 30 31 30 27 25 24 23 23 23 23 23 23 24 24 25 27 26 25 27 27 25 24 21 19 18 17 18 19 20 20
55 54 55 54 53 53 52 50 50 49 48 46 44 42 40 40 40 39 38 35 30 30 34 37 37 35 34 33 33 33 32 30 31 30 30 31 30 31 31 31 32 32 30 27 27 28 29 28 26 26 29 32 32 29 28 29 30 29 26 25 24 23 23 23 22 22 22 23 24 25 26 27 27 28 27 25 24 22 21 18 18 18 19 19 20
53 53 54 55 54 53 52 51 50 50 48 47 45 42 40 39 39 38 37 35 31 30 32 33 33 32 32 33 33 33 32 30 30 30 30 31 31 33 33 33 32 30 26 25 27 28 28 27 26 29 32 33 30 27 27 28 29 29 27 26 25 24 23 23 23 22 22 23 23 25 26 27 28 28 28 26 24 23 21 20 19 19 19 19 20
53 52 55 56 55 55 54 52 51 50 49 47 46 43 41 39 37 36 36 34 31 30 33 35 34 32 33 33 32 32 30 29 30 31 32 32 33 34 33 31 29 26 24 25 27 28 28 27 28 31 33 31 28 27 27 28 29 30 29 27 26 25 24 23 23 23 23 23 24 25 26 26 28 28 28 28 25 23 21 20 21 20 19 19 20
53 52 53 54 54 54 54 53 52 50 49 47 45 44 43 41 37 36 35 33 32 32 34 37 36 33 32 31 30 30 30 29 30 32 31 32 34 34 30 28 26 25 25 26 27 28 28 28 30 32 31 30 28 27 27 27 29 30 30 29 27 26 25 24 24 24 23 24 24 26 26 27 28 29 29 29 28 25 23 21 21 21 20 20 21
54 52 51 51 51 51 51 51 51 50 48 46 45 44 44 43 40 38 37 34 32 33 34 34 33 32 32 29 28 29 30 30 30 30 31 34 34 31 29 27 26 26 27 27 27 27 27 29 31 31 30 30 29 28 27 27 29 31 32 31 28 27 26 25 24 24 23 24 25 27 27 28 29 29 29 30 30 28 25 22 20 22 22 21 21
53 52 51 50 49 48 48 48 48 48 46 45 44 44 44 45 42 40 39 36 34 34 36 37 36 37 37 35 33 33 31 31 32 33 36 37 33 30 28 27 27 27 28 27 26 26 27 29 30 30 30 30 29 29 28 28 29 31 33 33 30 28 27 26 25 24 24 24 26 28 29 29 29 29 30 31 31 30 27 24 21 21 23 21 20
52 51 51 50 49 47 46 45 45 45 45 44 44 44 44 45 43 41 41 41 40 39 39 42 42 42 42 41 39 38 36 37 38 39 41 38 32 30 30 29 28 28 28 26 23 25 27 28 29 30 30 30 29 29 29 28 29 31 34 36 32 29 28 27 25 24 24 25 26 29 30 31 30 30 30 31 32 31 28 26 23 21 22 22 21
54 51 49 49 50 48 46 44 43 43 43 43 44 44 44 44 44 42 41 44 45 44 44 45 44 42 43 43 41 40 40 41 42 43 42 37 32 32 31 30 28 28 27 24 23 25 26 28 30 30 30 30 29 29 29 28 30 31 34 37 33 29 28 27 26 25 25 26 27 29 31 32 31 31 31 33 33 31 29 26 24 21 21 23 22
56 54 50 48 48 48 48 46 45 43 42 43 43 44 44 44 44 43 41 43 45 46 46 48 48 46 47 46 45 44 43 43 44 43 40 35 33 33 32 30 28 28 26 23 23 25 27 29 30 30 29 29 29 29 28 27 29 31 34 37 33 28 28 27 26 26 26 27 29 30 32 33 33 32 32 34 33 31 28 26 24 22 21 22 23
58 56 54 50 47 47 47 47 47 45 43 42 42 43 44 44 45 44 42 42 43 44 45 48 49 50 51 48 47 47 45 44 43 40 37 35 34 34 32 30 28 27 25 23 23 25 28 31 30 30 28 28 29 29 27 27 29 30 34 37 33 27 27 27 26 26 27 28 30 31 33 33 33 33 34 35 33 30 27 26 24 22 20 21 23
62 59 56 54 51 48 46 46 47 46 44 42 41 42 43 45 45 43 42 42 42 41 43 45 47 49 49 46 45 46 44 41 39 36 35 35 35 34 32 29 28 27 26 24 24 25 30 32 30 31 29 27 28 28 27 27 29 31 34 38 33 28 27 27 26 27 27 29 31 32 33 33 34 35 36 35 31 28 26 25 24 22 20 20 22
63 62 60 58 56 52 48 46 47 47 46 43 41 42 44 46 45 43 42 43 41 40 42 44 45 46 46 44 43 43 40 38 36 35 35 35 35 34 32 29 27 26 25 25 25 27 31 32 31 32 30 27 27 28 28 28 30 31 35 38 32 29 29 28 27 28 29 31 32 33 34 34 34 36 36 33 29 26 25 25 24 22 20 19 20
62 63 63 61 59 56 52 49 47 47 47 45 43 43 43 45 45 43 42 42 40 39 42 43 44 44 42 43 44 42 40 38 36 36 36 35 34 34 32 29 26 25 25 26 28 30 32 32 31 32 31 29 28 28 29 29 31 32 37 38 31 29 30 29 29 29 30 32 33 34 34 35 36 36 34 31 28 26 25 24 24 22 20 19 18
62 62 63 63 61 58 56 53 50 48 47 47 46 44 43 45 44 41 41 41 39 40 42 43 44 43 39 41 43 43 42 39 38 37 36 35 34 33 31 27 25 25 25 27 29 31 33 32 32 32 31 29 29 29 29 30 31 33 38 36 30 29 29 29 29 30 31 32 34 35 36 37 36 34 31 29 27 26 24 23 23 22 21 19 18
62 62 62 63 63 62 59 56 54 51 49 47 47 46 44 44 43 40 40 40 40 41 41 42 42 41 40 41 43 43 42 40 38 37 36 36 34 31 28 27 26 26 26 28 31 33 34 34 33 31 30 29 29 30 29 29 30 34 38 34 29 29 29 29 30 31 32 34 36 37 37 36 34 32 30 28 26 25 24 22 22 21 21 20 19
61 62 63 62 62 62 61 59 57 55 52 49 48 46 44 44 43 41 41 41 42 41 39 39 39 40 40 42 43 44 43 40 38 38 37 35 31 28 28 29 29 28 29 31 34 36 37 36 33 30 28 28 30 31 30 29 30 36 37 30 27 29 28 29 30 31 33 36 37 38 36 33 30 29 27 25 24 23 22 21 20 20 20 20 19
61 61 63 62 61 61 61 61 60 59 56 53 51 48 45 44 43 42 42 43 42 40 38 38 37 38 39 40 43 46 43 40 39 39 37 34 30 29 31 33 32 32 32 34 37 39 39 38 34 30 28 28 31 33 31 29 31 36 33 27 27 28 28 29 30 32 35 37 37 35 33 29 27 25 23 23 22 22 21 19 19 18 19 20 19
62 62 62 62 62 61 61 61 62 61 59 56 54 50 48 45 43 42 43 44 42 40 40 38 37 39 40 43 46 46 42 39 39 38 36 34 32 31 32 33 34 35 36 38 40 41 41 38 33 30 31 31 34 34 31 29 33 34 28 24 26 26 27 28 31 34 35 35 34 31 28 25 24 22 21 21 21 21 20 18 17 17 17 18 19
64 63 62 61 62 63 62 61 62 63 62 59 56 53 51 49 45 43 44 45 43 41 43 42 40 41 45 48 47 43 39 38 38 37 37 36 34 34 34 35 36 36 37 40 42 41 40 37 32 32 34 35 36 34 29 30 33 30 23 24 25 25 26 29 32 34 34 32 29 26 24 23 22 20 19 20 21 20 18 18 16 16 16 16 17
66 64 63 61 61 63 63 62 62 62 62 60 58 56 54 52 49 46 45 45 43 44 45 46 46 47 49 49 45 39 38 37 37 38 39 39 37 37 38 38 38 37 37 39 41 41 39 36 32 34 37 37 35 31 29 32 31 24 22 24 23 24 27 30 32 32 31 28 25 23 22 21 20 18 18 19 21 19 17 17 16 15 14 14 15
67 65 64 63 61 61 63 62 62 62 61 60 59 58 57 55 52 48 46 46 45 45 47 48 50 52 52 47 42 39 38 37 38 40 41 41 40 41 41 40 40 39 39 39 40 39 38 35 35 39 39 36 32 29 30 31 25 22 22 23 22 24 28 30 31 30 28 24 21 21 20 19 16 15 16 16 19 18 16 17 16 14 13 12 13
69 67 66 65 62 61 62 62 62 61 59 59 59 59 58 57 54 50 48 47 47 47 47 48 50 51 49 45 43 41 39 38 40 42 44 44 44 44 43 43 42 41 40 40 39 37 36 36 38 40 37 32 29 29 30 26 21 21 22 21 22 26 29 29 29 28 24 20 19 19 18 17 13 10 10 10 14 15 13 14 14 12 12 12 12
71 70 68 66 64 62 62 62 63 62 60 59 59 59 59 58 56 53 50 48 50 50 48 47 48 48 46 46 46 43 40 41 43 46 48 47 46 46 44 42 40 39 39 38 37 35 33 34 35 34 31 28 28 28 26 22 20 21 20 21 24 27 28 28 27 24 21 17 17 17 16 15 11 7 6 5 9 13 11 13 15 14 13 13 13
73 71 70 68 67 65 63 62 63 63 62 61 60 58 58 58 57 56 53 51 51 52 51 48 47 46 46 48 48 44 43 44 46 49 50 48 47 46 42 38 35 34 34 33 33 31 29 29 28 27 26 26 26 25 21 19 20 20 19 21 25 26 27 26 24 21 18 15 14 14 14 13 10 7 7 7 6 10 12 13 16 16 15 16 16
74 73 72 70 69 67 63 62 63 63 62 62 60 59 57 56 56 57 57 55 53 52 51 51 49 48 50 51 49 46 45 45 47 49 49 49 47 44 39 34 32 31 31 32 31 28 24 23 24 25 26 25 24 22 19 19 19 18 18 22 24 25 24 23 21 18 16 14 12 12 12 11 9 6 6 6 7 6 10 13 15 16 14 16 17
76 75 74 72 70 68 65 64 64 63 62 62 62 59 56 54 55 57 59 58 57 54 52 51 50 50 51 51 49 47 46 46 48 50 50 49 46 40 35 33 32 32 32 32 29 24 21 22 24 25 24 23 22 20 18 19 18 17 20 23 23 23 22 20 19 17 15 12 11 11 10 10 9 7 7 7 6 6 7 12 16 17 14 14 17
78 76 75 73 71 69 68 66 65 63 61 61 61 59 55 54 54 56 59 59 59 57 55 53 52 53 54 52 51 49 47 49 51 50 49 46 42 36 33 33 33 33 32 30 26 23 23 24 24 22 21 21 21 19 18 18 17 17 21 22 22 23 22 19 18 17 14 11 10 9 9 9 8 8 8 6 4 5 7 9 14 17 16 15 15
80 78 76 75 73 71 69 67 65 63 61 60 60 60 58 57 55 54 57 58 57 56 56 55 54 54 55 53 50 49 49 50 49 47 44 41 38 34 31 31 32 31 30 27 24 23 22 23 22 19 19 20 20 18 17 17 16 19 21 21 22 23 21 19 18 16 13 10 9 8 8 8 8 8 7 4 3 5 6 6 11 15 16 16 15
82 81 79 77 75 73 70 68 65 63 61 61 60 61 61 60 57 56 56 56 55 54 53 53 51 51 51 48 46 46 45 43 41 40 39 37 35 32 30 29 30 28 26 24 23 22 20 20 20 18 18 19 18 17 16 15 16 19 20 20 21 22 21 19 18 16 13 10 9 8 7 8 9 8 6 5 5 5 4 5 9 14 17 17 16
84 82 80 78 76 74 72 70 66 63 62 63 62 62 63 62 60 58 57 56 54 52 49 45 43 43 42 40 39 39 37 36 36 36 36 35 33 31 30 28 27 24 24 24 22 21 19 19 18 17 18 19 17 16 15 15 17 19 19 19 20 22 21 19 17 15 13 10 8 7 6 8 9 9 7 6 7 8 7 9 11 15 18 19 18
86 83 81 79 78 76 74 72 68 65 65 65 64 63 61 58 55 52 50 50 49 45 40 38 39 39 37 37 37 34 32 33 34 33 32 33 32 31 29 28 26 23 24 24 23 21 19 18 17 17 18 18 16 15 14 15 17 18 18 18 19 21 21 19 17 15 13 10 8 6 6 8 9 8 7 8 8 9 9 11 13 16 18 18 18
87 85 83 81 80 79 77 75 72 69 67 67 65 60 55 53 50 46 44 45 44 40 38 40 42 40 39 38 37 33 32 33 32 31 30 31 31 31 29 27 26 25 25 26 25 21 19 18 16 17 18 18 15 14 14 15 17 18 18 18 19 21 22 21 18 14 12 11 8 5 5 8 8 7 7 7 9 9 10 10 12 16 17 17 17
88 87 85 84 82 81 79 77 76 74 70 69 65 55 51 55 53 47 46 45 43 42 43 44 43 40 38 36 35 34 34 33 31 31 30 31 32 31 29 27 27 27 27 27 26 22 19 18 16 16 18 17 15 14 15 16 17 18 18 18 19 21 22 22 19 15 11 10 9 6 6 7 8 7 7 8 10 11 11 12 14 18 20 20 19
90 90 88 85 83 82 80 78 78 77 74 71 64 55 54 61 60 54 51 45 42 43 45 44 41 38 36 36 35 34 34 33 32 32 31 32 33 32 30 28 28 28 28 28 25 21 19 18 16 16 17 15 14 15 16 16 17 18 18 18 20 21 22 23 20 16 11 8 8 7 7 7 8 8 9 10 12 13 15 15 17 20 22 22 21
91 90 88 86 85 83 81 80 79 77 74 70 64 60 60 63 62 59 55 48 43 44 45 45 41 37 36 36 34 33 34 34 33 32 31 31 32 31 29 28 28 28 27 26 23 20 20 18 16 16 16 14 14 15 16 17 18 18 18 18 20 21 22 22 20 17 13 9 8 8 7 7 8 9 11 13 15 17 18 18 20 22 24 24 24
91 91 90 88 86 84 82 80 79 78 75 70 66 63 64 64 63 63 59 52 47 46 46 45 41 38 36 34 33 34 35 34 31 30 30 30 30 28 27 28 28 27 25 23 21 20 21 19 17 17 15 15 15 15 16 17 18 19 18 18 19 20 21 21 19 17 15 11 10 9 8 7 8 9 12 16 19 21 22 23 24 26 27 27 26
92 92 91 89 86 83 81 80 79 78 75 73 70 68 67 66 66 65 61 55 51 48 47 45 42 40 37 34 35 36 36 32 28 27 27 28 26 25 26 28 26 24 23 21 20 21 21 19 18 17 16 16 16 15 16 17 18 19 18 17 18 20 20 19 17 17 16 13 10 10 9 8 9 10 14 17 20 22 25 27 28 28 28 27 26
Wind_Direction
248 248 248 248 249 250 250 251 252 254 255 257 258 259 259 260 261 262 261 260 263 269 271 269 270 271 272 272 274 275 272 271 274 279 282 283 287 295 301 305 308 310 314 316 317 318 322 326 329 331 331 331 331 331 331 331 332 332 332 330 327 326 325 324 325 327 330 333 333 334 334 333 331 325 317 306 293 279 266 256 250 246 246 247 248
246 246 247 247 248 249 250 249 248 249 252 254 256 257 257 258 259 260 259 260 263 267 269 266 267 269 270 272 273 271 267 269 275 279 279 280 288 296 301 304 306 310 313 315 316 319 323 327 330 331 331 331 331 331 331 330 331 331 330 328 325 324 324 323 324 327 330 333 335 336 336 335 333 328 320 309 297 282 268 258 252 249 248 249 250
246 246 246 246 246 246 247 246 245 245 246 248 250 253 255 256 257 256 254 260 264 262 264 265 265 266 268 270 270 266 263 269 276 276 276 281 290 296 300 301 305 310 312 314 316 320 325 328 329 330 330 330 331 330 329 329 329 328 327 325 324 323 322 322 323 325 329 332 335 337 338 337 335 330 322 313 302 288 273 261 254 252 252 253 254
246 246 246 246 245 245 245 246 246 246 247 246 248 251 255 256 256 256 252 254 260 259 260 263 263 265 267 268 265 263 264 271 275 271 275 283 291 296 297 300 306 310 312 313 316 321 326 328 328 328 328 328 329 328 327 327 327 326 325 324 323 323 322 321 322 324 327 331 334 337 338 338 336 331 324 315 306 295 281 265 256 253 254 255 257
245 246 246 246 246 246 246 246 247 248 249 249 250 252 254 256 256 257 254 252 254 257 260 262 263 264 265 262 260 262 265 271 272 270 276 285 291 293 295 301 308 310 311 313 315 322 326 327 326 326 326 326 327 326 326 326 326 326 325 324 324 324 322 321 321 322 325 328 332 336 339 339 337 332 325 316 308 300 290 275 260 253 253 255 258
245 245 245 246 246 247 247 246 246 247 249 250 251 252 254 255 256 255 255 253 253 256 258 260 262 262 261 258 254 255 263 270 272 274 280 287 290 291 296 304 309 309 310 311 316 322 324 325 325 324 324 323 324 324 325 326 326 326 325 324 325 324 323 322 321 322 324 327 331 335 338 339 338 333 326 318 310 302 295 285 270 258 253 254 257
245 245 246 246 246 246 247 247 247 247 248 250 252 253 254 255 255 255 255 253 252 257 257 257 259 257 256 254 249 254 264 271 273 278 284 287 289 292 299 306 308 307 308 311 316 321 323 323 323 323 322 320 321 322 325 326 327 328 327 326 326 325 323 322 322 323 324 326 329 333 337 338 338 334 328 320 311 303 297 291 280 267 258 255 256
245 245 246 246 247 247 247 247 247 248 249 250 252 254 254 254 255 255 254 250 252 258 256 254 255 255 255 254 253 259 267 271 275 281 284 286 289 294 302 305 305 305 307 312 316 319 321 321 321 321 320 318 319 321 325 328 329 331 329 328 328 325 323 322 323 324 324 325 328 332 336 337 337 335 330 323 313 304 298 293 287 278 267 260 258
245 245 245 246 247 247 247 247 247 247 248 249 251 252 252 253 253 254 251 248 252 255 252 252 255 255 257 257 256 261 268 272 276 280 282 285 290 297 302 304 304 304 307 312 316 318 318 319 320 320 318 316 317 322 327 331 332 333 331 330 328 324 322 323 324 325 324 324 327 331 335 336 337 336 332 326 318 307 298 293 289 284 276 267 262
244 245 245 246 246 246 246 246 246 247 247 247 248 250 250 251 251 252 248 245 248 249 248 253 257 258 258 257 255 259 268 273 275 277 279 283 291 298 302 303 303 304 307 311 315 316 315 317 318 318 315 315 317 324 330 333 333 333 332 330 327 323 322 322 324 324 321 323 326 330 334 336 337 336 333 327 320 310 299 293 289 285 280 274 268
245 245 246 246 246 246 245 245 246 246 247 246 246 248 249 250 250 249 247 244 245 246 247 251 254 257 258 255 254 259 268 271 273 275 277 284 291 297 302 303 302 304 307 310 313 313 313 315 317 315 313 313 318 325 330 333 333 331 331 329 325 322 321 322 325 321 319 322 323 327 332 336 337 336 333 327 321 313 302 293 289 286 283 278 273
244 245 246 246 245 245 244 244 244 245 246 246 246 247 248 248 249 248 247 246 248 248 245 247 249 253 255 253 254 261 268 270 271 271 275 283 290 297 302 303 303 304 306 309 310 309 311 315 315 313 311 313 320 326 330 333 332 331 329 328 324 322 320 322 323 319 318 320 322 327 331 337 338 335 332 327 322 314 303 294 290 289 286 283 277
243 244 245 246 245 244 244 243 243 244 245 246 246 246 246 247 248 248 247 248 253 255 249 248 250 252 253 252 256 261 266 268 267 268 275 282 289 298 303 303 304 304 305 307 307 306 311 314 313 312 311 316 322 327 331 333 332 331 330 328 325 322 321 322 322 319 318 319 322 327 332 338 336 331 331 327 322 315 303 294 291 290 289 286 281
240 242 244 244 244 245 244 244 244 244 245 246 246 246 246 246 248 248 247 246 248 253 254 253 254 255 255 254 257 260 264 266 264 268 276 284 293 301 304 303 302 302 303 304 303 305 309 311 311 311 315 319 323 327 333 334 334 333 331 330 328 325 323 323 322 319 317 318 322 326 331 335 331 330 331 327 323 316 304 293 287 287 286 286 284
238 240 242 241 242 244 244 244 244 244 245 245 246 247 247 247 248 247 246 245 237 241 252 255 256 256 256 256 257 260 263 264 265 271 279 285 295 301 301 298 297 299 299 300 301 304 307 309 311 314 319 321 322 329 335 336 336 336 334 333 330 328 325 324 321 318 316 317 321 326 330 331 329 330 331 328 323 316 305 290 282 282 281 282 283
236 236 239 240 240 242 243 243 244 244 244 244 245 246 247 246 248 247 245 242 232 235 246 250 254 255 256 257 259 261 263 264 267 272 277 285 293 297 296 293 293 294 296 299 300 302 305 308 313 318 320 319 322 331 335 337 339 340 338 335 333 331 328 325 321 318 316 317 320 325 329 328 327 329 329 328 323 317 308 290 278 277 277 276 277
236 234 236 238 239 240 242 242 243 243 244 243 243 243 245 244 245 246 243 238 228 234 244 244 249 255 257 260 261 263 265 265 268 271 277 283 290 293 292 291 290 290 295 299 298 300 303 308 315 318 318 318 323 332 335 336 339 341 340 337 335 333 330 326 322 319 318 318 320 324 327 326 325 326 327 328 324 317 310 293 277 273 273 272 274
237 234 235 237 238 239 240 241 242 242 242 242 242 241 242 242 240 242 243 239 227 229 242 246 250 255 257 259 262 267 269 270 271 273 276 282 287 289 288 287 287 288 295 297 295 298 302 309 314 316 317 318 324 330 333 335 338 341 341 338 335 334 331 328 323 320 319 318 320 323 325 324 323 324 326 326 324 318 311 299 280 270 269 271 273
238 236 235 236 237 238 239 240 241 241 241 240 240 239 240 240 236 235 238 241 234 229 237 244 248 249 249 250 253 260 266 268 269 271 274 280 285 284 282 283 284 287 293 294 294 298 304 311 313 314 317 318 323 328 331 332 335 338 339 338 335 334 333 329 325 321 318 317 319 320 322 322 321 322 325 326 323 318 312 304 287 270 265 267 270
237 237 236 236 236 237 238 239 239 240 239 239 238 238 238 239 236 231 229 234 237 231 232 237 240 242 244 243 245 250 254 256 260 265 272 280 282 278 279 281 282 286 291 293 294 300 307 311 311 315 317 318 322 326 328 329 331 334 338 338 335 334 334 331 327 322 318 317 317 319 320 320 320 321 323 324 322 317 311 305 296 277 263 262 264
234 236 236 236 236 236 237 237 238 238 237 237 237 237 237 237 237 233 227 227 231 232 233 235 237 241 245 245 245 247 249 252 257 263 271 277 275 273 278 280 281 285 289 291 293 301 307 309 311 315 316 318 320 323 326 326 327 330 336 338 335 334 334 332 328 322 318 316 316 317 318 319 319 319 320 322 319 315 309 304 298 286 267 257 259
231 232 234 236 236 235 236 236 237 236 235 235 234 235 235 235 236 234 231 228 229 233 236 237 238 241 247 248 248 249 251 254 258 264 270 272 269 272 276 278 280 283 287 287 290 299 305 307 311 315 315 317 318 321 323 324 324 325 332 335 334 332 332 331 328 322 317 314 314 315 316 317 318 317 318 319 317 311 305 301 297 291 275 259 256
230 229 229 232 234 234 234 234 235 234 233 233 232 233 234 234 234 233 233 231 231 234 237 240 241 244 248 251 254 253 253 256 260 265 267 266 266 271 274 276 278 281 284 283 287 298 304 307 310 312 312 314 314 317 320 320 320 320 327 332 331 330 330 328 326 321 316 314 313 314 315 315 316 316 316 317 314 308 302 298 295 292 285 269 259
230 229 227 227 229 232 233 232 233 234 232 231 231 232 233 233 233 232 233 233 234 235 238 242 243 246 249 253 257 256 256 258 261 263 262 262 266 270 272 275 277 280 281 281 289 299 304 306 308 310 308 310 311 314 317 317 317 318 324 329 329 327 328 326 323 319 315 313 313 313 314 315 314 314 315 315 312 305 298 295 292 289 288 279 266
230 229 229 227 227 228 230 231 232 232 232 231 230 230 230 232 232 231 232 234 236 237 240 243 244 246 249 253 256 257 257 258 259 258 259 261 266 269 272 274 275 278 279 281 289 297 303 305 307 309 307 307 309 311 314 313 315 317 322 327 327 326 326 324 321 318 315 313 312 313 314 314 313 313 314 313 309 302 296 292 290 287 285 284 274
229 229 229 228 226 226 226 227 229 230 230 229 230 230 230 231 232 230 231 233 235 237 240 243 245 247 249 251 253 255 256 256 255 256 259 263 267 269 271 272 273 276 278 280 284 290 299 303 306 308 307 307 308 311 313 311 313 316 322 326 325 325 326 324 322 318 315 314 313 313 313 313 312 313 313 311 306 300 295 291 288 286 282 282 278
229 228 228 228 227 226 225 226 226 227 229 228 228 229 230 231 232 230 230 233 233 235 238 241 244 246 248 250 252 254 256 255 255 256 260 264 267 269 271 270 272 277 278 278 279 284 295 301 304 307 307 307 309 311 312 311 312 316 321 324 324 325 326 324 321 317 315 313 314 314 313 313 314 314 313 309 305 300 295 290 286 283 280 278 277
228 228 228 228 227 226 226 226 225 225 226 227 227 228 229 231 232 230 229 231 231 232 235 238 241 243 243 247 252 254 255 256 256 258 261 265 267 269 269 268 271 278 279 278 278 284 293 299 302 304 305 306 309 311 310 309 310 315 320 322 323 325 326 323 319 315 314 314 314 314 314 315 315 315 313 309 306 301 296 291 285 281 278 274 273
226 227 227 227 227 226 226 226 226 225 224 225 226 226 228 231 232 230 227 228 229 229 233 236 239 241 240 244 250 253 254 256 256 258 262 264 267 269 269 267 271 278 280 278 280 284 292 298 300 301 303 303 307 309 306 305 308 315 319 321 323 325 324 320 316 314 315 315 315 315 317 317 317 315 314 311 308 303 298 292 287 282 278 274 271
224 225 226 226 226 226 225 225 225 225 224 223 223 223 225 228 229 228 226 225 227 228 229 233 239 243 243 245 249 252 254 255 257 260 263 264 266 269 269 271 274 278 278 277 280 283 288 295 297 298 300 301 306 306 302 301 306 314 318 319 324 325 322 317 315 315 316 317 317 318 319 319 318 317 316 314 311 305 300 294 289 284 280 277 273
223 224 225 224 225 225 225 224 225 225 224 223 222 221 221 224 226 226 225 223 224 225 224 228 238 243 242 243 247 251 254 256 260 264 264 265 265 266 267 270 273 272 273 276 279 280 284 292 294 294 295 298 304 304 299 299 306 313 317 320 324 323 317 315 315 317 318 318 318 319 320 322 322 322 320 316 312 308 303 298 293 288 284 281 279
221 223 224 223 223 224 224 224 224 225 224 224 223 221 219 221 223 223 223 223 222 221 218 223 234 239 238 239 245 251 255 259 264 265 265 266 266 266 267 270 270 269 271 274 278 280 283 288 289 289 292 295 301 302 296 298 306 313 316 321 323 318 314 315 317 318 319 320 320 322 325 328 330 329 326 319 314 311 307 303 299 293 287 285 284
220 221 223 222 222 223 223 223 223 224 224 223 224 223 220 219 219 220 223 222 220 218 216 218 228 236 237 240 246 252 256 260 263 264 265 264 264 267 270 272 271 270 271 273 277 280 282 285 285 287 291 293 299 298 294 299 307 312 317 321 318 314 315 317 319 320 321 322 324 328 334 335 336 337 332 323 317 314 313 311 308 302 295 290 288
220 220 221 221 222 222 222 223 223 223 223 222 223 223 222 221 220 219 223 224 220 217 217 219 223 231 238 243 248 252 255 258 261 262 263 262 264 269 273 274 272 271 272 273 275 277 280 281 281 287 291 293 295 294 294 302 308 313 318 318 314 313 316 319 320 322 322 325 329 337 341 339 340 337 331 327 320 320 323 322 321 315 308 300 294
220 219 219 219 220 221 222 222 223 223 222 222 222 223 222 222 221 220 223 225 223 220 220 222 225 232 240 246 249 251 254 256 258 260 261 262 266 270 273 275 275 274 273 273 275 277 279 278 278 286 290 290 290 291 297 304 308 313 316 314 313 316 319 320 322 323 324 328 336 343 342 341 342 331 329 332 323 327 336 330 329 328 322 314 303
221 219 218 218 218 220 221 220 221 222 222 221 221 222 222 223 222 221 222 224 224 223 223 224 228 234 240 245 247 248 251 255 257 259 261 263 266 269 273 275 275 275 274 275 276 278 280 278 279 284 286 285 287 293 299 304 308 312 311 311 315 319 321 323 324 324 326 333 342 345 344 345 347 332 332 334 323 335 350 338 336 339 335 331 319
221 219 218 216 216 218 220 220 220 220 219 219 220 221 221 222 222 221 221 222 223 223 224 225 229 235 240 244 245 247 249 252 255 257 260 262 266 270 274 276 276 275 274 276 278 282 283 281 280 281 281 284 289 295 300 303 307 308 308 313 319 322 324 325 325 326 329 338 345 347 350 356 2 7 16 9 335 338 347 347 347 347 347 344 336
222 220 218 216 215 215 218 219 219 219 218 217 219 220 220 221 221 221 220 220 221 222 223 225 228 233 239 243 245 247 248 249 252 256 260 264 269 274 275 276 276 274 276 279 283 288 287 281 278 279 282 286 292 296 299 301 304 305 309 317 321 324 326 326 326 329 333 341 347 348 358 9 17 36 49 57 26 342 332 345 349 347 349 348 344
221 220 218 216 214 214 215 218 219 218 217 217 217 218 219 220 220 221 221 220 220 221 222 224 226 230 235 240 244 246 248 250 253 257 263 268 272 274 275 276 276 277 281 285 290 293 286 278 278 281 286 291 295 296 298 300 301 304 314 321 322 325 327 327 328 333 338 344 346 347 0 14 20 28 28 35 47 10 335 340 343 342 345 347 348
220 219 218 216 214 213 213 216 218 217 216 217 217 217 217 219 220 221 221 220 220 221 222 223 226 229 234 239 242 245 247 252 256 260 265 269 270 270 274 277 278 282 285 288 291 287 280 279 281 284 290 294 294 294 298 299 300 309 319 322 324 327 329 329 332 337 343 344 342 346 358 10 14 9 357 2 38 48 359 337 333 335 338 340 346
220 219 218 217 214 212 212 214 216 216 214 216 218 217 215 217 220 222 222 222 222 223 224 225 227 230 233 237 241 244 249 253 258 262 265 265 265 268 273 276 279 282 284 286 286 278 275 280 283 287 292 292 290 293 297 297 301 315 322 323 326 330 332 332 335 340 347 345 338 344 353 359 6 360 352 354 19 49 28 342 321 326 328 325 335
219 218 217 216 214 212 211 212 214 215 213 214 217 216 214 215 218 221 223 223 223 225 226 228 230 233 236 239 243 247 250 253 256 260 262 262 264 268 272 274 277 279 280 283 281 274 273 279 283 287 289 287 287 291 295 296 306 319 323 325 328 331 332 333 337 343 350 346 333 338 346 348 356 359 353 340 340 27 29 330 299 305 313 316 325
218 217 216 215 213 211 210 210 212 215 213 212 214 214 214 214 215 218 222 222 222 224 226 229 232 235 239 241 244 245 247 249 251 254 258 261 266 270 272 273 274 275 277 278 275 271 272 276 280 284 285 283 285 290 292 296 310 320 323 325 328 330 333 334 337 342 351 347 332 332 334 338 350 1 3 342 337 1 1 320 295 295 306 314 322
217 217 215 214 213 211 209 208 209 213 214 212 212 213 213 214 215 217 220 221 223 224 225 227 230 232 235 237 237 238 240 243 247 251 256 261 267 271 272 271 271 270 274 275 270 267 270 273 278 283 281 281 285 288 288 298 313 319 321 324 327 330 335 338 337 339 347 348 338 330 325 334 349 357 1 353 345 343 333 325 311 304 308 312 317
217 217 215 214 213 211 209 207 206 210 214 213 212 212 213 217 218 220 221 222 223 223 223 225 227 228 229 231 232 234 237 240 245 250 255 261 267 270 271 269 268 267 271 271 266 263 265 269 275 280 279 281 285 283 286 300 312 317 319 322 326 331 338 343 341 336 339 347 347 336 323 332 344 348 350 353 347 337 330 327 319 314 313 309 312
216 216 215 213 212 211 208 205 204 207 211 212 213 211 213 219 221 221 222 222 223 222 222 226 227 226 227 229 232 234 237 240 243 249 255 261 267 269 269 269 267 266 268 267 261 258 261 266 272 275 277 282 281 279 286 301 311 315 318 321 324 329 339 346 345 337 333 342 350 342 322 323 333 338 339 343 339 332 333 333 330 329 326 320 318
215 216 215 213 212 210 208 204 203 205 207 209 212 207 208 219 222 220 218 217 219 221 222 223 222 221 224 228 232 234 237 240 244 250 256 261 265 268 268 269 268 266 265 260 254 253 258 263 268 270 275 280 278 277 288 301 310 314 316 319 321 327 338 346 346 341 333 337 343 339 334 331 334 336 331 332 333 332 335 335 333 335 335 332 328
214 214 215 214 212 211 208 204 203 204 204 205 206 200 202 215 220 220 219 215 218 220 218 217 216 217 222 226 229 233 237 241 246 251 255 259 262 265 267 267 268 265 257 248 246 251 255 258 262 266 272 276 274 278 290 301 310 315 315 317 319 324 337 344 345 344 341 335 333 335 339 339 338 337 331 329 331 334 337 334 331 332 333 332 329
213 213 214 213 212 211 208 205 203 204 203 203 202 196 198 210 217 219 219 218 217 216 213 214 214 214 220 225 229 232 237 242 246 251 254 256 259 262 264 265 264 257 245 239 243 251 254 255 257 261 266 270 273 279 290 301 310 315 315 315 317 324 336 343 344 348 350 339 329 330 336 336 335 334 329 327 329 332 332 328 326 327 328 330 329
212 213 213 213 212 210 208 205 203 203 202 201 199 197 197 205 213 216 216 216 215 213 211 213 213 213 218 224 229 232 236 240 245 248 251 253 256 260 261 261 257 247 238 239 245 251 252 251 253 256 261 265 270 277 288 299 308 314 313 312 316 323 334 343 346 354 359 349 332 326 329 333 334 332 328 327 329 330 328 324 323 324 325 326 323
211 212 212 213 212 210 208 205 203 202 201 200 199 198 198 202 209 212 212 212 213 211 211 213 213 213 216 220 226 230 233 236 239 243 246 250 253 257 257 254 248 240 238 242 247 250 249 247 249 254 258 263 267 274 285 297 305 311 311 309 314 322 333 342 348 359 6 2 344 331 328 330 332 333 330 326 325 324 323 321 320 320 321 321 319
Height
10861 10861 10862 10864 10865 10867 10868 10869 10869 10869 10870 10870 10871 10872 10874 10876 10878 10879 10881 10882 10882 10883 10883 10883 10883 10884 10884 10884 10884 10884 10883 10882 10883 10882 10881 10881 10882 10882 10881 10881 10880 10880 10879 10879 10878 10877 10876 10875 10874 10872 10871 10869 10868 10866 10864 10862 10861 10859 10857 10855 10853 10852 10850 10848 10847 10845 10843 10841 10839 10837 10836 10834 10833 10831 10830 10829 10828 10827 10826 10826 10825 10825 10825 10825 10825
10854 10855 10857 10859 10861 10863 10864 10865 10866 10866 10867 10867 10868 10869 10871 10873 10875 10877 10878 10878 10879 10880 10881 10881 10881 10882 10882 10882 10882 10881 10880 10880 10881 10880 10879 10880 10880 10879 10879 10878 10878 10877 10877 10876 10876 10875 10874 10872 10871 10870 10869 10867 10865 10863 10862 10860 10858 10857 10855 10853 10851 10850 10848 10846 10844 10843 10841 10839 10837 10835 10834 10832 10831 10830 10829 10828 10827 10826 10825 10824 10824 10823 10823 10824 10824
10848 10850 10852 10854 10856 10858 10859 10861 10861 10862 10863 10864 10864 10865 10868 10870 10872 10874 10875 10876 10877 10878 10878 10878 10879 10880 10880 10880 10880 10879 10878 10878 10878 10878 10877 10878 10878 10877 10877 10876 10875 10875 10874 10874 10873 10872 10871 10870 10869 10868 10866 10865 10863 10861 10859 10858 10856 10855 10853 10851 10849 10848 10846 10844 10842 10841 10839 10837 10835 10834 10832 10830 10829 10828 10827 10826 10825 10824 10823 10823 10822 10822 10822 10822 10822
10844 10846 10847 10849 10851 10854 10855 10856 10857 10859 10860 10860 10861 10862 10865 10867 10869 10870 10873 10874 10874 10875 10876 10876 10877 10878 10878 10878 10877 10877 10876 10876 10876 10876 10876 10875 10875 10875 10874 10874 10873 10873 10872 10871 10871 10870 10869 10868 10866 10865 10864 10863 10861 10859 10857 10856 10855 10853 10851 10849 10847 10846 10844 10842 10840 10839 10837 10836 10834 10832 10830 10829 10827 10826 10825 10824 10823 10822 10822 10821 10821 10821 10820 10820 10820
10839 10841 10843 10845 10847 10850 10852 10853 10854 10855 10856 10856 10858 10859 10861 10863 10865 10867 10869 10871 10871 10873 10873 10873 10874 10875 10875 10875 10875 10875 10874 10874 10874 10874 10873 10873 10873 10872 10872 10871 10871 10870 10870 10869 10868 10867 10866 10865 10864 10863 10862 10860 10859 10857 10855 10854 10853 10851 10849 10847 10845 10844 10842 10840 10839 10837 10836 10834 10832 10831 10829 10827 10826 10824 10823 10822 10821 10821 10820 10820 10819 10819 10818 10818 10818
10835 10837 10838 10840 10843 10846 10848 10850 10851 10852 10852 10853 10855 10856 10858 10860 10862 10864 10866 10867 10868 10870 10870 10870 10871 10873 10873 10873 10873 10872 10872 10872 10872 10872 10871 10871 10870 10870 10869 10869 10868 10868 10867 10867 10866 10865 10864 10863 10862 10861 10859 10858 10857 10855 10853 10852 10850 10849 10846 10845 10843 10842 10840 10839 10837 10835 10834 10832 10831 10829 10827 10826 10824 10822 10821 10820 10820 10819 10818 10818 10817 10817 10816 10816 10816
10831 10832 10834 10836 10839 10842 10844 10846 10847 10848 10849 10850 10852 10853 10855 10857 10858 10860 10862 10864 10865 10866 10867 10868 10869 10870 10870 10871 10870 10869 10870 10870 10870 10869 10869 10868 10868 10867 10867 10866 10866 10866 10865 10864 10863 10863 10862 10861 10860 10859 10857 10856 10855 10853 10852 10849 10848 10846 10844 10842 10841 10840 10838 10837 10835 10833 10832 10830 10829 10827 10826 10824 10822 10821 10820 10818 10818 10817 10816 10816 10816 10815 10815 10814 10814
10826 10828 10830 10833 10835 10838 10840 10842 10844 10845 10846 10847 10849 10850 10852 10854 10855 10857 10859 10861 10862 10863 10864 10865 10866 10867 10867 10867 10867 10867 10868 10867 10867 10867 10866 10866 10865 10865 10864 10864 10864 10863 10863 10862 10861 10861 10860 10859 10858 10857 10855 10854 10852 10851 10849 10848 10846 10844 10841 10840 10839 10837 10836 10834 10833 10831 10830 10828 10827 10825 10823 10822 10820 10819 10818 10817 10816 10815 10815 10814 10814 10813 10813 10812 10812
10821 10824 10827 10829 10832 10834 10836 10838 10840 10841 10842 10844 10846 10847 10848 10850 10852 10854 10856 10858 10860 10861 10861 10862 10862 10863 10864 10864 10865 10865 10865 10865 10865 10865 10864 10863 10863 10863 10862 10862 10862 10861 10860 10860 10859 10859 10858 10858 10856 10855 10854 10852 10850 10848 10847 10846 10844 10842 10839 10837 10836 10835 10834 10832 10831 10830 10828 10826 10825 10823 10821 10820 10818 10817 10816 10815 10814 10813 10812 10812 10811 10811 10811 10810 10810
10817 10820 10823 10826 10828 10830 10832 10834 10836 10837 10838 10841 10842 10842 10845 10847 10849 10851 10853 10855 10856 10858 10858 10859 10859 10860 10861 10862 10862 10862 10862 10862 10863 10862 10861 10861 10861 10861 10860 10860 10859 10859 10858 10857 10857 10857 10856 10855 10855 10853 10852 10850 10848 10846 10844 10843 10842 10840 10837 10835 10834 10833 10832 10831 10829 10828 10826 10824 10823 10821 10820 10818 10817 10815 10814 10812 10811 10811 10810 10810 10809 10809 10808 10808 10807
10813 10816 10819 10822 10824 10826 10828 10830 10831 10832 10834 10836 10838 10839 10842 10844 10846 10848 10850 10852 10853 10854 10856 10856 10856 10857 10858 10859 10859 10860 10860 10860 10860 10860 10859 10859 10859 10859 10858 10858 10857 10857 10856 10855 10855 10855 10854 10853 10853 10851 10850 10848 10846 10844 10842 10841 10840 10838 10836 10833 10832 10831 10830 10829 10828 10827 10824 10823 10821 10819 10818 10817 10816 10814 10812 10811 10809 10808 10808 10807 10807 10806 10806 10805 10805
10809 10812 10814 10817 10819 10821 10823 10825 10827 10828 10830 10832 10834 10836 10838 10840 10842 10844 10847 10849 10850 10851 10852 10853 10853 10854 10855 10856 10856 10857 10857 10857 10857 10857 10857 10857 10857 10856 10856 10855 10855 10855 10854 10853 10853 10852 10852 10851 10851 10849 10848 10846 10845 10842 10840 10838 10837 10835 10833 10831 10829 10829 10828 10827 10827 10825 10822 10821 10819 10818 10817 10817 10815 10812 10810 10809 10807 10806 10805 10805 10804 10804 10803 10803 10802
10805 10808 10810 10812 10814 10816 10818 10821 10823 10825 10827 10828 10831 10833 10835 10837 10839 10841 10844 10846 10847 10847 10848 10850 10850 10851 10852 10853 10853 10854 10854 10855 10855 10855 10855 10855 10854 10854 10854 10853 10853 10852 10852 10851 10851 10850 10850 10849 10848 10847 10846 10845 10843 10841 10838 10836 10834 10832 10831 10829 10828 10826 10826 10825 10824 10822 10820 10819 10817 10816 10816 10816 10814 10811 10809 10807 10806 10805 10803 10803 10802 10801 10801 10800 10800
10801 10804 10806 10808 10809 10811 10814 10817 10820 10822 10824 10826 10827 10830 10832 10834 10836 10838 10841 10843 10846 10845 10845 10846 10846 10848 10849 10850 10851 10851 10852 10852 10853 10853 10853 10853 10852 10852 10852 10851 10851 10851 10850 10850 10849 10848 10848 10847 10846 10845 10844 10842 10841 10840 10837 10835 10832 10830 10828 10827 10825 10824 10823 10823 10821 10820 10818 10817 10815 10815 10815 10814 10812 10810 10808 10806 10804 10803 10801 10801 10800 10799 10798 10798 10798
10796 10799 10800 10802 10805 10807 10811 10813 10816 10818 10820 10823 10825 10827 10829 10831 10833 10835 10838 10840 10843 10843 10842 10842 10843 10845 10846 10847 10848 10849 10849 10850 10850 10851 10851 10851 10851 10850 10850 10850 10849 10849 10848 10848 10847 10846 10846 10845 10844 10843 10842 10840 10839 10838 10836 10833 10831 10828 10826 10825 10823 10822 10821 10820 10819 10818 10817 10815 10814 10814 10814 10812 10810 10808 10807 10805 10803 10801 10800 10799 10797 10797 10796 10796 10796
10791 10795 10795 10797 10801 10803 10806 10809 10812 10814 10817 10819 10822 10824 10826 10828 10830 10832 10835 10837 10840 10841 10839 10839 10840 10842 10843 10844 10845 10846 10847 10848 10848 10849 10849 10849 10849 10849 10849 10848 10848 10847 10846 10846 10845 10844 10844 10843 10842 10841 10839 10838 10837 10836 10834 10832 10829 10827 10825 10823 10822 10820 10819 10818 10817 10816 10815 10814 10813 10813 10813 10811 10808 10807 10805 10803 10802 10800 10798 10797 10795 10795 10794 10794 10794
10785 10790 10790 10792 10796 10798 10801 10804 10807 10810 10813 10815 10818 10821 10823 10825 10827 10829 10831 10834 10837 10838 10837 10837 10838 10840 10841 10841 10842 10843 10845 10846 10846 10846 10847 10847 10847 10847 10847 10846 10846 10845 10845 10844 10843 10842 10841 10841 10840 10838 10837 10836 10835 10833 10832 10830 10828 10826 10824 10822 10820 10819 10818 10816 10815 10814 10813 10812 10811 10811 10811 10809 10807 10805 10803 10801 10800 10798 10796 10795 10793 10793 10792 10791 10791
10779 10784 10786 10788 10791 10794 10797 10800 10803 10806 10809 10812 10814 10817 10819 10821 10824 10826 10828 10831 10833 10835 10835 10835 10837 10837 10838 10839 10840 10841 10842 10843 10843 10844 10844 10845 10845 10845 10845 10844 10844 10843 10843 10842 10841 10840 10839 10838 10837 10836 10834 10833 10832 10831 10829 10828 10826 10824 10823 10821 10819 10817 10816 10815 10813 10812 10811 10810 10809 10809 10809 10807 10805 10803 10801 10799 10797 10796 10794 10793 10791 10790 10790 10789 10789
10774 10778 10782 10784 10787 10790 10793 10796 10799 10802 10805 10808 10810 10813 10815 10817 10820 10823 10826 10828 10830 10832 10832 10833 10834 10835 10835 10837 10838 10839 10839 10841 10841 10841 10842 10843 10843 10843 10843 10842 10842 10841 10841 10840 10839 10838 10837 10836 10835 10833 10832 10831 10830 10829 10827 10826 10824 10822 10821 10819 10817 10816 10814 10813 10812 10810 10809 10808 10807 10806 10806 10805 10803 10800 10799 10797 10795 10793 10792 10790 10789 10788 10787 10787 10786
10769 10773 10777 10780 10783 10786 10789 10792 10795 10798 10801 10804 10806 10809 10811 10813 10816 10820 10823 10825 10827 10829 10830 10831 10831 10831 10832 10834 10835 10837 10838 10839 10839 10839 10839 10840 10841 10841 10840 10840 10840 10839 10839 10838 10837 10836 10835 10834 10833 10831 10830 10829 10828 10826 10825 10823 10822 10820 10819 10817 10815 10813 10812 10811 10810 10808 10807 10806 10805 10803 10803 10802 10800 10798 10796 10794 10792 10790 10789 10787 10787 10786 10785 10784 10784
10764 10768 10772 10775 10779 10783 10786 10788 10791 10794 10797 10800 10802 10804 10807 10809 10812 10816 10819 10822 10823 10825 10827 10827 10828 10828 10829 10830 10832 10834 10835 10836 10836 10836 10837 10838 10839 10838 10838 10838 10838 10837 10837 10836 10835 10834 10834 10832 10831 10829 10828 10827 10826 10824 10823 10821 10819 10818 10816 10814 10812 10811 10810 10808 10807 10806 10805 10804 10802 10801 10799 10798 10797 10795 10793 10791 10789 10787 10786 10785 10784 10783 10782 10782 10782
10759 10763 10767 10770 10774 10778 10781 10785 10787 10790 10793 10795 10798 10800 10803 10806 10808 10812 10815 10817 10819 10821 10823 10823 10824 10825 10825 10827 10829 10830 10832 10833 10833 10834 10835 10836 10836 10836 10836 10836 10836 10835 10835 10834 10833 10833 10832 10831 10829 10828 10826 10825 10824 10822 10821 10819 10817 10816 10814 10813 10811 10809 10807 10806 10805 10804 10803 10802 10800 10798 10797 10795 10794 10793 10791 10789 10787 10785 10783 10782 10781 10780 10780 10779 10779
10753 10758 10762 10765 10769 10773 10777 10780 10782 10785 10788 10791 10793 10796 10799 10801 10804 10808 10811 10813 10815 10817 10819 10819 10820 10822 10822 10823 10825 10827 10828 10829 10830 10831 10832 10833 10833 10834 10834 10834 10834 10833 10833 10832 10832 10831 10830 10829 10828 10826 10825 10824 10822 10821 10819 10818 10816 10815 10813 10811 10809 10807 10805 10804 10803 10801 10800 10799 10798 10796 10794 10792 10791 10790 10788 10786 10784 10782 10780 10779 10778 10777 10777 10777 10777
10748 10752 10757 10761 10765 10768 10772 10775 10778 10781 10784 10787 10790 10792 10795 10797 10800 10804 10807 10810 10812 10814 10815 10815 10817 10818 10819 10821 10821 10823 10825 10826 10827 10828 10829 10830 10831 10831 10831 10832 10831 10831 10831 10830 10830 10829 10828 10827 10826 10825 10824 10822 10821 10819 10818 10816 10815 10813 10812 10810 10807 10805 10804 10802 10800 10799 10798 10797 10795 10794 10792 10790 10788 10787 10785 10783 10781 10778 10777 10776 10775 10775 10774 10774 10774
10743 10747 10752 10756 10760 10764 10768 10771 10774 10777 10780 10784 10787 10789 10791 10792 10795 10800 10804 10806 10809 10812 10812 10812 10814 10815 10816 10818 10818 10819 10822 10823 10824 10825 10826 10827 10828 10829 10829 10829 10829 10828 10828 10828 10828 10827 10826 10825 10824 10823 10822 10821 10819 10817 10816 10814 10813 10811 10809 10807 10805 10803 10801 10799 10798 10796 10795 10794 10792 10791 10789 10787 10785 10783 10781 10779 10777 10775 10774 10773 10772 10772 10772 10772 10771
10737 10742 10746 10750 10754 10759 10764 10767 10769 10772 10776 10781 10783 10785 10787 10788 10791 10797 10801 10803 10805 10808 10809 10809 10810 10812 10813 10815 10815 10816 10819 10820 10821 10822 10823 10824 10825 10826 10826 10827 10826 10826 10825 10825 10825 10825 10824 10823 10822 10820 10819 10818 10817 10815 10814 10812 10810 10809 10807 10804 10802 10800 10798 10796 10795 10793 10792 10790 10789 10787 10786 10784 10782 10780 10777 10775 10773 10772 10771 10770 10769 10769 10769 10769 10769
10731 10736 10740 10744 10749 10755 10759 10761 10765 10768 10772 10777 10779 10781 10783 10785 10788 10793 10797 10799 10802 10805 10805 10806 10807 10809 10810 10811 10812 10813 10815 10817 10818 10819 10820 10821 10822 10823 10824 10824 10824 10823 10823 10823 10822 10823 10822 10821 10820 10818 10816 10815 10814 10813 10811 10809 10808 10806 10804 10802 10800 10797 10795 10793 10792 10790 10789 10787 10785 10784 10782 10780 10778 10776 10774 10771 10770 10768 10767 10767 10766 10766 10766 10767 10767
10725 10730 10735 10739 10744 10749 10753 10756 10760 10764 10768 10772 10775 10777 10780 10781 10784 10790 10794 10796 10799 10801 10801 10802 10803 10806 10807 10807 10808 10810 10812 10814 10815 10816 10818 10819 10820 10821 10821 10822 10821 10821 10821 10820 10820 10820 10820 10819 10818 10816 10815 10813 10812 10810 10808 10807 10805 10804 10802 10800 10797 10795 10793 10791 10789 10788 10786 10784 10782 10780 10778 10776 10774 10772 10769 10767 10766 10765 10764 10764 10763 10763 10763 10764 10764
10719 10724 10729 10733 10738 10743 10748 10752 10755 10759 10763 10767 10771 10774 10776 10778 10781 10786 10790 10792 10795 10797 10798 10798 10800 10802 10804 10804 10805 10807 10809 10811 10813 10814 10815 10816 10817 10818 10819 10819 10819 10819 10818 10818 10817 10817 10817 10816 10816 10815 10813 10811 10810 10808 10807 10805 10804 10802 10800 10797 10795 10793 10791 10789 10787 10785 10783 10781 10779 10777 10774 10772 10770 10767 10765 10764 10762 10762 10761 10761 10761 10761 10761 10761 10761
10714 10718 10722 10727 10732 10737 10742 10746 10749 10753 10758 10763 10766 10770 10773 10774 10777 10782 10786 10788 10791 10794 10795 10796 10798 10799 10800 10801 10802 10804 10806 10808 10810 10811 10813 10814 10815 10816 10816 10816 10816 10816 10816 10816 10815 10815 10814 10814 10813 10813 10811 10810 10808 10807 10805 10804 10802 10800 10798 10795 10793 10791 10789 10787 10785 10783 10781 10778 10775 10773 10771 10768 10766 10764 10762 10760 10759 10759 10758 10758 10758 10758 10758 10758 10759
10708 10712 10716 10721 10727 10732 10736 10740 10743 10747 10752 10757 10760 10765 10768 10770 10774 10778 10782 10784 10787 10791 10793 10794 10795 10796 10797 10799 10799 10801 10803 10806 10807 10809 10810 10811 10812 10813 10813 10813 10814 10814 10814 10814 10813 10812 10812 10811 10811 10810 10809 10808 10806 10804 10803 10802 10801 10799 10796 10793 10791 10789 10787 10785 10783 10781 10779 10776 10773 10770 10768 10765 10763 10761 10759 10758 10757 10756 10756 10756 10756 10756 10756 10756 10756
10703 10706 10710 10716 10721 10725 10729 10733 10737 10741 10747 10751 10755 10760 10763 10766 10770 10774 10777 10780 10785 10788 10790 10791 10792 10793 10794 10796 10796 10799 10801 10803 10804 10805 10807 10808 10809 10810 10810 10811 10811 10811 10811 10811 10810 10810 10809 10809 10808 10807 10806 10805 10804 10802 10801 10800 10799 10797 10794 10792 10789 10787 10785 10783 10781 10779 10776 10774 10770 10768 10765 10763 10761 10760 10758 10756 10755 10755 10754 10754 10754 10754 10754 10754 10754
10696 10700 10704 10710 10715 10719 10723 10727 10731 10736 10741 10746 10750 10754 10758 10762 10765 10770 10773 10776 10781 10785 10786 10788 10789 10789 10790 10792 10794 10797 10800 10801 10801 10802 10803 10804 10806 10807 10808 10808 10808 10808 10808 10808 10808 10807 10807 10807 10806 10805 10804 10803 10802 10799 10798 10798 10796 10794 10792 10790 10788 10786 10784 10782 10779 10777 10774 10771 10769 10766 10764 10762 10760 10759 10758 10756 10755 10754 10753 10753 10753 10753 10753 10753 10753
10689 10694 10699 10705 10709 10713 10718 10722 10726 10730 10735 10740 10744 10749 10753 10757 10761 10766 10770 10773 10778 10781 10783 10785 10786 10785 10786 10790 10793 10795 10798 10798 10799 10799 10799 10801 10803 10804 10804 10805 10805 10805 10805 10805 10805 10805 10805 10805 10803 10802 10801 10801 10799 10797 10796 10795 10794 10792 10790 10788 10786 10784 10782 10780 10777 10775 10772 10770 10767 10765 10763 10762 10760 10759 10757 10756 10755 10755 10753 10752 10752 10752 10752 10751 10751
10682 10688 10693 10698 10703 10708 10712 10717 10721 10726 10731 10735 10739 10744 10748 10752 10757 10762 10766 10770 10774 10778 10780 10782 10784 10783 10784 10788 10791 10793 10795 10796 10796 10795 10796 10798 10801 10801 10801 10802 10802 10802 10802 10802 10802 10802 10803 10802 10800 10799 10798 10798 10797 10795 10794 10793 10791 10789 10788 10786 10784 10782 10780 10778 10775 10773 10770 10768 10766 10764 10763 10762 10761 10759 10758 10757 10757 10756 10754 10752 10752 10751 10750 10750 10750
10675 10681 10686 10692 10698 10703 10707 10711 10715 10721 10726 10731 10735 10739 10742 10747 10752 10758 10762 10766 10770 10774 10777 10779 10781 10781 10783 10786 10788 10790 10792 10793 10792 10791 10792 10795 10797 10798 10798 10799 10799 10799 10799 10799 10799 10799 10800 10799 10797 10796 10796 10795 10794 10793 10792 10790 10789 10787 10786 10784 10783 10780 10778 10775 10773 10770 10769 10767 10765 10764 10763 10762 10761 10760 10760 10761 10759 10756 10754 10752 10752 10751 10750 10749 10748
10667 10674 10680 10686 10693 10698 10702 10705 10709 10714 10720 10725 10729 10733 10737 10742 10748 10753 10757 10761 10765 10769 10773 10776 10778 10779 10781 10783 10785 10787 10789 10790 10789 10788 10788 10791 10793 10794 10795 10796 10796 10796 10796 10796 10796 10797 10797 10796 10794 10793 10793 10792 10792 10791 10790 10788 10787 10785 10784 10783 10781 10778 10776 10773 10771 10769 10768 10766 10765 10764 10763 10762 10761 10761 10762 10763 10760 10755 10754 10754 10752 10751 10750 10749 10748
10660 10667 10673 10679 10685 10692 10697 10700 10704 10708 10713 10718 10722 10727 10732 10737 10743 10748 10752 10756 10760 10765 10769 10772 10775 10777 10778 10779 10781 10784 10785 10785 10785 10784 10785 10787 10790 10791 10792 10793 10793 10793 10794 10794 10794 10794 10794 10793 10791 10791 10790 10790 10790 10789 10788 10787 10785 10784 10783 10781 10779 10776 10774 10771 10769 10768 10766 10765 10764 10763 10763 10762 10761 10761 10761 10763 10762 10758 10755 10755 10753 10751 10750 10749 10747
10652 10659 10665 10672 10678 10686 10693 10696 10698 10703 10709 10713 10717 10722 10728 10733 10739 10743 10748 10752 10757 10761 10765 10769 10772 10773 10774 10775 10777 10780 10781 10782 10782 10782 10782 10784 10786 10788 10789 10790 10791 10791 10791 10791 10791 10792 10791 10790 10789 10788 10788 10787 10787 10786 10786 10785 10783 10782 10781 10779 10777 10775 10773 10770 10768 10766 10764 10763 10763 10763 10762 10761 10761 10760 10760 10761 10762 10760 10757 10755 10754 10752 10750 10749 10747
10643 10650 10658 10665 10672 10681 10688 10691 10694 10699 10704 10709 10713 10718 10724 10730 10735 10739 10744 10749 10753 10757 10761 10765 10768 10770 10771 10772 10775 10777 10779 10780 10780 10780 10781 10781 10783 10786 10786 10787 10788 10789 10789 10789 10789 10790 10789 10788 10787 10787 10786 10785 10785 10784 10784 10782 10781 10781 10780 10778 10776 10774 10771 10768 10766 10765 10763 10761 10761 10762 10761 10761 10760 10760 10759 10759 10760 10760 10758 10756 10753 10752 10750 10748 10747
10635 10643 10651 10658 10666 10675 10682 10687 10691 10695 10701 10706 10711 10716 10722 10726 10731 10735 10739 10744 10749 10753 10758 10762 10764 10765 10767 10770 10772 10775 10777 10778 10777 10778 10779 10779 10781 10783 10784 10785 10786 10787 10787 10787 10788 10788 10787 10786 10785 10785 10784 10783 10783 10782 10782 10781 10780 10779 10778 10776 10774 10771 10769 10767 10765 10763 10761 10760 10760 10760 10760 10760 10759 10759 10759 10759 10759 10759 10759 10758 10755 10752 10749 10748 10747
10627 10634 10642 10649 10658 10668 10676 10683 10687 10692 10698 10703 10708 10713 10717 10721 10727 10731 10734 10739 10745 10750 10753 10756 10758 10761 10764 10768 10771 10773 10774 10775 10776 10776 10776 10776 10778 10780 10782 10784 10784 10785 10785 10786 10786 10785 10785 10784 10783 10783 10783 10782 10781 10781 10780 10779 10778 10778 10776 10774 10772 10770 10768 10765 10763 10761 10760 10759 10759 10759 10759 10758 10758 10758 10758 10758 10758 10759 10760 10760 10757 10753 10750 10748 10747
10618 10625 10632 10640 10650 10660 10669 10678 10685 10691 10695 10699 10703 10708 10711 10716 10722 10726 10730 10735 10741 10745 10749 10752 10755 10759 10762 10766 10769 10770 10771 10772 10773 10773 10773 10774 10775 10778 10780 10782 10783 10783 10784 10784 10784 10783 10783 10782 10781 10781 10781 10781 10780 10780 10779 10778 10777 10776 10775 10773 10771 10769 10766 10764 10761 10759 10758 10757 10757 10758 10757 10757 10757 10757 10757 10757 10758 10758 10759 10760 10757 10754 10751 10749 10747
10610 10618 10626 10635 10643 10652 10662 10671 10680 10688 10693 10696 10698 10701 10705 10711 10717 10721 10726 10731 10736 10742 10747 10750 10754 10757 10760 10763 10764 10766 10767 10769 10769 10770 10772 10772 10773 10775 10777 10779 10781 10782 10782 10782 10782 10781 10781 10780 10780 10780 10779 10779 10779 10779 10778 10777 10776 10775 10774 10772 10770 10767 10765 10763 10760 10757 10756 10756 10756 10756 10756 10756 10756 10756 10756 10756 10757 10757 10758 10758 10756 10753 10750 10748 10746
10604 10612 10620 10628 10636 10645 10654 10664 10675 10683 10689 10692 10693 10697 10704 10709 10715 10721 10726 10731 10736 10743 10747 10749 10751 10754 10756 10758 10758 10761 10763 10764 10766 10768 10770 10771 10771 10773 10774 10777 10778 10779 10780 10780 10779 10779 10778 10778 10778 10778 10778 10778 10778 10778 10777 10776 10775 10775 10773 10771 10769 10767 10764 10762 10759 10756 10754 10754 10755 10755 10755 10754 10755 10755 10755 10755 10756 10756 10756 10755 10754 10751 10749 10747 10745
10598 10605 10612 10619 10627 10635 10644 10656 10668 10677 10684 10688 10690 10698 10706 10709 10714 10720 10726 10731 10735 10740 10742 10743 10745 10748 10750 10752 10755 10758 10759 10761 10763 10765 10767 10768 10769 10770 10771 10774 10775 10777 10778 10777 10777 10776 10776 10776 10776 10776 10776 10777 10777 10777 10776 10776 10775 10774 10772 10770 10768 10766 10763 10761 10758 10755 10753 10753 10754 10754 10753 10753 10754 10754 10754 10754 10754 10754 10753 10753 10751 10749 10747 10745 10743
10590 10596 10603 10610 10618 10626 10636 10648 10658 10666 10675 10683 10689 10700 10708 10708 10711 10716 10720 10725 10730 10732 10734 10736 10739 10742 10746 10749 10752 10754 10756 10758 10761 10762 10764 10766 10766 10767 10768 10770 10772 10773 10774 10774 10774 10774 10774 10774 10775 10775 10775 10775 10776 10776 10775 10775 10774 10773 10771 10769 10767 10765 10762 10759 10756 10754 10752 10752 10752 10753 10752 10752 10753 10753 10753 10753 10753 10752 10751 10750 10749 10747 10745 10743 10741
10579 10586 10594 10604 10612 10619 10630 10642 10650 10657 10666 10676 10687 10700 10706 10705 10706 10711 10716 10720 10724 10726 10729 10733 10735 10739 10743 10746 10749 10751 10753 10756 10757 10759 10761 10763 10764 10764 10766 10767 10769 10770 10771 10771 10771 10771 10772 10772 10773 10773 10773 10774 10774 10774 10774 10773 10773 10772 10770 10768 10766 10764 10761 10758 10755 10753 10751 10751 10751 10751 10751 10751 10752 10752 10752 10751 10751 10750 10749 10747 10746 10745 10743 10742 10740
10571 10579 10588 10597 10605 10613 10624 10635 10644 10653 10662 10673 10685 10693 10699 10701 10702 10706 10712 10716 10719 10722 10727 10731 10734 10738 10741 10743 10746 10748 10750 10752 10754 10756 10758 10760 10761 10762 10763 10764 10766 10767 10767 10768 10768 10769 10769 10770 10771 10771 10772 10772 10772 10772 10772 10772 10771 10770 10769 10767 10765 10763 10760 10757 10754 10751 10750 10749 10749 10750 10750 10750 10750 10750 10750 10749 10749 10748 10747 10745 10744 10743 10742 10741 10739
10565 10573 10581 10589 10597 10607 10618 10629 10638 10648 10658 10670 10680 10686 10691 10694 10696 10700 10705 10710 10714 10719 10723 10727 10731 10736 10738 10741 10743 10745 10747 10749 10751 10753 10755 10756 10758 10759 10760 10761 10763 10764 10765 10765 10766 10766 10767 10768 10769 10769 10770 10770 10771 10771 10771 10770 10770 10769 10767 10765 10763 10761 10759 10757 10754 10751 10750 10748 10748 10748 10748 10748 10749 10749 10748 10747 10746 10745 10745 10744 10742 10741 10740 10739 10737
10557 10565 10573 10582 10593 10604 10614 10624 10633 10643 10654 10663 10672 10679 10683 10685 10688 10693 10700 10705 10710 10715 10719 10723 10728 10732 10734 10737 10740 10741 10743 10746 10748 10750 10752 10753 10755 10756 10757 10759 10761 10762 10763 10763 10763 10764 10764 10766 10767 10767 10768 10768 10769 10769 10769 10769 10768 10767 10766 10763 10762 10760 10758 10756 10753 10751 10749 10748 10747 10746 10746 10747 10747 10747 10747 10745 10744 10743 10743 10742 10741 10740 10738 10737 10735